カタログに戻る

STARLINK-32532

運用中通信VLEO
NORAD 62156·PAYLOAD·🇺🇸 United States

打ち上げ Nov 30, 2024 から Cape Canaveral Space Force Station

Loading…

次のパス (今後24時間)

TLE

最新Source: CelesTrak SupGP

元期: Sep 14, 2026, 22:30 UTC

1 62156C 24224T   26257.93798611 -.00044377  00000+0 -16072-2 0  2571
2 62156  43.0014 169.1936 0001317 267.6394 130.4532 15.27602755    17

AllMySatでSTARLINK-32532をリアルタイム追跡

Download on the App Store